"Pseudo-MPEC" for P1186Ny

Created 2020 Oct 18 16:07:34 UT using Find_Orb

Click here for an explanation of pseudo-MPECs

 
 Astrometry: 
     P1186Ny  C2020 10 16e:!p'/y^?!Kjp)!hJTDKOrh4$J6uj!5kKpTKolBhnGYdP4RUBQLIF51
     P1186Ny  C2020 10 16n`'Astrometrysvredacted;#cR8.W/b]$T%GZgVnsclick16JkbF51
     P1186Ny  C2020 10 16N`U3hereSXforv+q*Fy^X+#^eDo3qZ$BL@pfC%yv^O[/Yw5YQMYcF51
     P1186Ny  C2020 10 1736HR4qf,QDNWdxCaWexplanationv];KrJ^J9=!AQTAf,V7LipDFF51
     P1186Ny  C2020 10 175BDvS@4oF,s*0ge.S*NJH*bOF+yjQ4fOe@pyip_p)V57/?S^DVB,F51
     P1186Ny  C2020 10 17_C7^gBs.r^(B7K8vg8Fqo\bXUppym_ejvI1?v?k4!3%LKV:=ef8'F51
     P1186Ny KC2020 10 18.30779802 23 12.67 -10 33 22.2    ~AI7q 22.39GVNEOCPV06
     P1186Ny KC2020 10 18.31017302 23 12.47 -10 33 21.9    ~AI7q 21.44GVNEOCPV06
     P1186Ny KC2020 10 18.31254902 23 12.28 -10 33 22.0    ~AI7q 21.53GVNEOCPV06

Station data:
(F51) Pan-STARRS 1, Haleakala  (N20.707235 W156.255910)  US/Hawaii.
   Observers N. Primak, A. Schultz, S. Watters, J. Thiel, T. Goggia. Measurer
   PS1 Science Consortium. 1.8-m Ritchey-Chrétien + CCD.
(V06) Catalina Sky Survey-Kuiper  (N32.416847 W110.732550)  US/Arizona.
   Observers T. A. Pruyne, B. M. Africano, E. J. Christensen, G. A. Farneth,
   D. C. Fuls, A. R. Gibbs, A. D. Grauer, H. Gröller, J. A. Johnson, R. A.
   Kowalski, S. M. Larson, G. J. Leonard, D. Rankin, R. L. Seaman, F. C.
   Shelly. 1.55-m reflector + CCD.

Orbital elements:  P1186Ny
   Perihelion 2020 Jul 13.793186 +/- 1.9 TT = 19:02:11 (JD 2459044.293186)
Epoch 2020 Oct 18.0 TT = JDT 2459140.5   Earth MOID: 0.1710   AutoNEOCP
M  31.26179173 +/- 2.0              (J2000 ecliptic)
n   0.32494363 +/- 0.0258           Peri.  191.96282 +/- 1.6
a   2.09538595 +/- 0.111            Node   120.69376 +/- 1.2
e   0.4350931 +/- 0.0316            Incl.    8.31235 +/- 0.30
P   3.03                   H 21.5   G  0.15   U 10.3  
q 1.18369785 +/- 0.00907    Q 3.00707404 +/- 0.214
From 9 observations 2020 Oct. 16-18 (45.8 hr); mean residual 0".07
Residuals in arcseconds: 
201016 F51  .02-  .11+    201017 F51  .07-  .04+    201018 V06  .03+  .07-    
201016 F51  .09+  .04+    201017 F51  .06+  .04+    201018 V06  .05-  .13+    
201016 F51  .07-  .15-    201017 F51  .01+  .08-    201018 V06  .02+  .06-    

Ephemerides (geocentric):
Date (UTC) HH   RA              Dec         delta   r     elong  mag " sig PA
---- -- -- --  -------------   -----------  ------ ------ -----  --- ---- ---
2020 10 18 16  02 22 45.192   -10 32 54.26  .55318 1.5191 156.3 22.0 1.14 160
2020 10 18 17  02 22 42.020   -10 32 52.04  .55339 1.5193 156.3 22.0 1.20 159
2020 10 18 18  02 22 38.849   -10 32 49.77  .55361 1.5196 156.4 22.0 1.27 158
2020 10 18 19  02 22 35.679   -10 32 47.45  .55382 1.5198 156.4 22.0 1.33 158
2020 10 18 20  02 22 32.509   -10 32 45.09  .55403 1.5200 156.4 22.0 1.40 157
2020 10 18 21  02 22 29.339   -10 32 42.67  .55425 1.5203 156.4 22.0 1.47 157
2020 10 18 22  02 22 26.171   -10 32 40.21  .55447 1.5205 156.4 22.0 1.54 156
2020 10 18 23  02 22 23.003   -10 32 37.70  .55468 1.5207 156.4 22.0 1.61 156
2020 10 19 00  02 22 19.835   -10 32 35.14  .55490 1.5210 156.4 22.0 1.68 155
2020 10 19 01  02 22 16.668   -10 32 32.53  .55511 1.5212 156.4 22.0 1.76 155
2020 10 19 02  02 22 13.502   -10 32 29.88  .55533 1.5214 156.5 22.0 1.84 154
2020 10 19 03  02 22 10.337   -10 32 27.17  .55555 1.5216 156.5 22.0 1.91 154
2020 10 19 04  02 22 07.172   -10 32 24.42  .55576 1.5219 156.5 22.0 2.00 154
2020 10 19 05  02 22 04.008   -10 32 21.62  .55598 1.5221 156.5 22.0 2.08 153
2020 10 19 06  02 22 00.845   -10 32 18.77  .55620 1.5223 156.5 22.0 2.16 153
2020 10 19 07  02 21 57.682   -10 32 15.87  .55642 1.5226 156.5 22.0 2.25 153
2020 10 19 08  02 21 54.520   -10 32 12.92  .55664 1.5228 156.5 22.0 2.34 152
2020 10 19 09  02 21 51.358   -10 32 09.93  .55685 1.5230 156.5 22.0 2.43 152
2020 10 19 10  02 21 48.198   -10 32 06.88  .55707 1.5233 156.6 22.0 2.52 152
2020 10 19 11  02 21 45.038   -10 32 03.79  .55729 1.5235 156.6 22.0 2.62 152
2020 10 19 12  02 21 41.879   -10 32 00.65  .55751 1.5237 156.6 22.0 2.71 151
2020 10 19 13  02 21 38.721   -10 31 57.46  .55773 1.5239 156.6 22.0 2.81 151
2020 10 19 14  02 21 35.563   -10 31 54.22  .55795 1.5242 156.6 22.0 2.91 151
2020 10 19 15  02 21 32.407   -10 31 50.94  .55817 1.5244 156.6 22.0 3.01 151
2020 10 19 16  02 21 29.251   -10 31 47.60  .55839 1.5246 156.6 22.0 3.12 151
2020 10 19 17  02 21 26.096   -10 31 44.22  .55861 1.5249 156.6 22.0 3.22 151
2020 10 19 18  02 21 22.942   -10 31 40.79  .55884 1.5251 156.7 22.0 3.33 150
2020 10 19 19  02 21 19.788   -10 31 37.31  .55906 1.5253 156.7 22.0 3.44 150
2020 10 19 20  02 21 16.636   -10 31 33.79  .55928 1.5256 156.7 22.0 3.55 150
2020 10 19 21  02 21 13.484   -10 31 30.21  .55950 1.5258 156.7 22.0 3.66 150
2020 10 19 22  02 21 10.333   -10 31 26.59  .55972 1.5260 156.7 22.0 3.77 150
2020 10 19 23  02 21 07.183   -10 31 22.92  .55995 1.5263 156.7 22.0 3.89 150
2020 10 20 00  02 21 04.034   -10 31 19.20  .56017 1.5265 156.7 22.0 4.01 150
2020 10 20 01  02 21 00.886   -10 31 15.43  .56039 1.5267 156.7 22.0 4.13 150
2020 10 20 02  02 20 57.739   -10 31 11.61  .56062 1.5270 156.7 22.0 4.25 149
2020 10 20 03  02 20 54.593   -10 31 07.75  .56084 1.5272 156.8 22.0 4.37 149
2020 10 20 04  02 20 51.448   -10 31 03.84  .56106 1.5274 156.8 22.0 4.50 149
2020 10 20 05  02 20 48.303   -10 30 59.88  .56129 1.5276 156.8 22.0 4.62 149
2020 10 20 06  02 20 45.160   -10 30 55.87  .56151 1.5279 156.8 22.0 4.75 149
2020 10 20 07  02 20 42.018   -10 30 51.81  .56174 1.5281 156.8 22.0 4.88 149
2020 10 20 08  02 20 38.876   -10 30 47.71  .56196 1.5283 156.8 22.0 5.01 149
2020 10 20 09  02 20 35.736   -10 30 43.56  .56219 1.5286 156.8 22.0 5.15 149
2020 10 20 10  02 20 32.596   -10 30 39.35  .56242 1.5288 156.8 22.0 5.28 149
2020 10 20 11  02 20 29.458   -10 30 35.11  .56264 1.5290 156.8 22.1 5.42 149
2020 10 20 12  02 20 26.321   -10 30 30.81  .56287 1.5293 156.8 22.1 5.55 149
2020 10 20 13  02 20 23.184   -10 30 26.47  .56310 1.5295 156.9 22.1 5.70 149
2020 10 20 14  02 20 20.049   -10 30 22.07  .56332 1.5297 156.9 22.1 5.84 149
2020 10 20 15  02 20 16.915   -10 30 17.63  .56355 1.5300 156.9 22.1 5.98 149